Track STARLINK-3060 now! 10-day predictions STARLINK-3060 is classified as:
1 49155U 21082AB 22223.93765298 .00006404 00000-0 56033-3 0 9991 2 49155 70.0014 306.3029 0003520 260.0283 100.0478 14.97175614 52464